Radiation Dose measured at exhaust stack monitor of Fukushima Daiichi Nuclear Power Station
Date,Time,Unit 5 6 shared exhaust cylinders,Wind Direction,Wind Velocity(m/s)
2023/02/04,00:00,3.9,west-northwest,3.1
2023/02/04,00:10,4.0,west-northwest,3.1
2023/02/04,00:20,3.9,west-northwest,3.3
2023/02/04,00:30,4.0,west-northwest,3.8
2023/02/04,00:40,3.8,west-northwest,3.7
2023/02/04,00:50,4.0,west-northwest,2.3
2023/02/04,01:00,4.1,west-southwest,1.8
2023/02/04,01:10,3.9,southwest,1.9
2023/02/04,01:20,3.9,southwest,2.0
2023/02/04,01:30,3.8,west,1.4
2023/02/04,01:40,3.8,west,1.4
2023/02/04,01:50,3.8,west-northwest,2.3
2023/02/04,02:00,3.9,west,1.8
2023/02/04,02:10,4.0,west,1.4
2023/02/04,02:20,3.9,west,0.6
2023/02/04,02:30,3.7,west-northwest,1.9
2023/02/04,02:40,3.8,west,1.5
2023/02/04,02:50,4.0,west-southwest,0.9
2023/02/04,03:00,4.0,west-southwest,1.2
2023/02/04,03:10,3.9,southwest,1.2
2023/02/04,03:20,3.9,west,1.5
2023/02/04,03:30,3.9,west,2.0
2023/02/04,03:40,4.0,west,2.0
2023/02/04,03:50,3.9,west-southwest,1.2
2023/02/04,04:00,3.9,west-southwest,1.7
2023/02/04,04:10,3.8,west-northwest,1.5
2023/02/04,04:20,3.8,west-northwest,1.7
2023/02/04,04:30,3.9,west-northwest,2.3
2023/02/04,04:40,4.0,west,2.3
2023/02/04,04:50,3.8,west,1.8
2023/02/04,05:00,3.8,west,2.0
2023/02/04,05:10,3.9,west,2.8
2023/02/04,05:20,3.8,west,2.3
2023/02/04,05:30,3.9,west-northwest,2.2
2023/02/04,05:40,4.0,west-northwest,2.5
2023/02/04,05:50,4.1,west-northwest,2.3
2023/02/04,06:00,3.9,west-northwest,2.3
2023/02/04,06:10,3.8,west-northwest,1.9
2023/02/04,06:20,4.0,west-northwest,1.8
2023/02/04,06:30,3.9,west,2.0
2023/02/04,06:40,4.0,west,1.7
2023/02/04,06:50,3.8,southwest,1.9
2023/02/04,07:00,3.9,west-southwest,1.2
2023/02/04,07:10,3.9,south-southwest,0.9
2023/02/04,07:20,3.9,-,CALM
2023/02/04,07:30,3.9,north-northeast,0.8
2023/02/04,07:40,4.0,north-northeast,1.7
2023/02/04,07:50,3.9,northeast,0.9
2023/02/04,08:00,3.9,north-northwest,0.9
2023/02/04,08:10,3.8,north-northeast,1.1
2023/02/04,08:20,3.8,north,0.8
2023/02/04,08:30,3.8,west-southwest,0.6
2023/02/04,08:40,3.8,-,CALM
2023/02/04,08:50,3.8,northwest,0.6
2023/02/04,09:00,3.8,west-northwest,0.6
2023/02/04,09:10,3.8,south-southeast,0.6
2023/02/04,09:20,3.9,-,CALM
2023/02/04,09:30,4.0,south-southwest,1.1
2023/02/04,09:40,3.9,-,CALM
2023/02/04,09:50,3.9,east-southeast,1.7
2023/02/04,10:00,4.0,southeast,1.7
2023/02/04,10:10,4.0,east-southeast,2.2
2023/02/04,10:20,3.9,east,2.0
2023/02/04,10:30,3.7,southeast,2.3
2023/02/04,10:40,4.2,east-southeast,2.3
2023/02/04,10:50,3.8,east-southeast,3.3
2023/02/04,11:00,3.9,southeast,3.9
2023/02/04,11:10,4.0,east-southeast,3.1
2023/02/04,11:20,3.8,southeast,3.8
2023/02/04,11:30,3.8,southeast,4.9
2023/02/04,11:40,3.9,southeast,5.4
2023/02/04,11:50,3.9,south-southeast,5.2
2023/02/04,12:00,3.8,south-southeast,6.7
2023/02/04,12:10,3.9,south-southeast,7.0
2023/02/04,12:20,3.9,south-southeast,7.5
2023/02/04,12:30,3.8,south-southeast,7.3
2023/02/04,12:40,3.8,south-southeast,8.5
2023/02/04,12:50,3.9,south-southeast,8.1
2023/02/04,13:00,3.8,south-southeast,8.9
2023/02/04,13:10,4.0,south-southeast,9.6
2023/02/04,13:20,3.8,south-southeast,8.6
2023/02/04,13:30,4.0,south-southeast,10.2
2023/02/04,13:40,4.0,south-southeast,10.3
2023/02/04,13:50,4.0,south-southeast,10.7
2023/02/04,14:00,3.8,south-southeast,11.0
2023/02/04,14:10,3.9,south-southeast,9.2
2023/02/04,14:20,3.9,south-southeast,9.5
2023/02/04,14:30,4.0,south-southeast,9.3
2023/02/04,14:40,3.9,south,9.8
2023/02/04,14:50,4.0,south-southeast,10.2
2023/02/04,15:00,3.9,south-southeast,10.5
2023/02/04,15:10,3.9,south-southeast,11.3
2023/02/04,15:20,3.9,south,10.6
2023/02/04,15:30,3.9,south-southeast,11.4
2023/02/04,15:40,3.8,south-southeast,11.0
2023/02/04,15:50,3.9,south-southeast,9.7
2023/02/04,16:00,3.9,south-southeast,11.4
2023/02/04,16:10,4.0,south-southeast,10.5
2023/02/04,16:20,3.9,south,9.4
2023/02/04,16:30,3.8,south,8.2
2023/02/04,16:40,3.9,south,8.9
2023/02/04,16:50,3.9,south,7.9
2023/02/04,17:00,3.8,south,10.0
2023/02/04,17:10,3.7,south,8.8
2023/02/04,17:20,4.0,south,8.2
2023/02/04,17:30,3.8,south,7.6
2023/02/04,17:40,3.8,south,8.0
2023/02/04,17:50,3.9,south,6.9
2023/02/04,18:00,4.0,south,6.9
2023/02/04,18:10,3.8,south-southwest,5.8
2023/02/04,18:20,4.0,south-southwest,4.7
2023/02/04,18:30,4.0,south-southwest,3.2
2023/02/04,18:40,3.9,southwest,4.2
2023/02/04,18:50,3.8,southwest,3.7
2023/02/04,19:00,3.8,west,3.5
2023/02/04,19:10,3.8,west,4.3
2023/02/04,19:20,4.0,west-northwest,3.8
2023/02/04,19:30,3.8,northwest,3.2
2023/02/04,19:40,3.9,north-northwest,4.2
2023/02/04,19:50,3.8,northwest,4.2
2023/02/04,20:00,3.9,northwest,4.9
2023/02/04,20:10,4.0,west-northwest,6.3
2023/02/04,20:20,4.0,northwest,5.8
2023/02/04,20:30,4.0,northwest,7.3
2023/02/04,20:40,4.0,northwest,5.5
2023/02/04,20:50,3.9,northwest,4.8
2023/02/04,21:00,3.9,northwest,5.5
2023/02/04,21:10,3.9,west-northwest,6.1
2023/02/04,21:20,3.8,northwest,5.1
2023/02/04,21:30,4.0,north-northwest,4.8
2023/02/04,21:40,3.9,north,6.9
2023/02/04,21:50,3.7,north,7.2
2023/02/04,22:00,3.8,north-northwest,8.6
2023/02/04,22:10,3.9,north-northwest,8.4
2023/02/04,22:20,3.8,north-northwest,9.0
2023/02/04,22:30,3.9,north-northwest,7.7
2023/02/04,22:40,3.8,north-northwest,6.4
2023/02/04,22:50,3.8,north-northwest,6.3
2023/02/04,23:00,4.1,north-northwest,6.3
2023/02/04,23:10,3.8,north-northwest,7.0
2023/02/04,23:20,4.0,north-northwest,6.9
2023/02/04,23:30,4.0,northwest,5.7
2023/02/04,23:40,3.9,northwest,6.2
2023/02/04,23:50,3.9,northwest,5.7
